Location: ??
(35.5052°N, 139.7262°E)
Time: 18:29:08
(UTC+00:00)

SL-16 R/B - Pass Details

Date: 20 June 2021
Orbit: 842 x 847 km, 71.0° (Epoch: 29 July)

Event Time Altitude Azimuth Distance (km) Brightness Sun altitude
Exits shadow 13:54:43 50° 55° (NE) 1,063 2.7 -30.0°
Drops below altitude 10° 13:59:04 10° 28° (NNE) 2,468 5.2 -30.2°
Sets 14:01:32 0° 25° (NNE) 3,406 6.1 -30.3°
